Current weather by "City, St" or "zip code"  
 
Advertise Here

Current Conditions: Beaver County Airport, PA

Overcast


30.0 F

Last Updated on Jan 18 2021, 4:55 am EST
Humidity: 92%
Wind Speed: W 5.8 mph
Barometer 29.71 in
Dewpoint: 28.0 F
Visibility: 10.00 mi
Precip: --
Heat Index: NA
Wind Chill: 24 F
Current conditions at:

Beaver County Airport, PA (KBVI)

Lat: 40.77351 Lon: 80.38248

Local Radar Image active severe weather and emergency alerts image image weather storm and storm spotter reports image weather observation monitoring service image
Local
Radar
Active
Alerts
Storm Reports Obs
Monitoring

Sign-up For Email & Text Message Weather Alert Notification Services


Advertise Here

Observation History for Beaver County Airport, PA


Time Wind
(mph)
Vis
(mi)
Weather Precip (in) Temperature (F) Relative
Humidity
Wind
Chill
(F)
Heat
Index
(F)
Pressure
Air Dwpt altimeter
(in)
sea level
(mb)
Rmks
4:55 am EST W 5.8 10.00 Overcast -- 30.0 28.0 92% 24 NA 29.71 M
3:55 am EST W 6.9 10.00 Overcast -- 30.0 28.2 93% 23 NA 29.70 M
2:55 am EST W 6.9 10.00 Overcast -- 31.0 29.8 95% 24 NA 29.70 M
1:55 am EST W 8.1 7.00 Light Snow -- 31.0 30.2 95% 24 NA 29.69 M
12:55 am EST W 5.8 2.50 Light Snow -- 32.0 30.9 97% 26 NA 29.68 M
11:55 pm EST SW 3.5 3.00 Light Snow -- 32.0 30.6 96% NA NA 29.68 M
10:55 pm EST SW 5.8 10.00 Overcast -- 32.0 30.2 94% 26 NA 29.69 M
9:55 pm EST SW 8.1 10.00 Overcast -- 32.0 30.7 95% 25 NA 29.69 M
8:55 pm EST SW 6.9 3.00 Light Snow -- 32.0 31.8 99% 26 NA 29.69 M
7:55 pm EST S 4.6 3.00 Light Snow -- 32.0 31.8 99% 27 NA 29.70 M
6:55 pm EST SW 8.1 2.50 Light Snow -- 32.0 31.8 99% 25 NA 29.70 M
5:55 pm EST SW 4.6 4.00 Light Snow -- 32.0 31.8 98% 27 NA 29.69 M
4:55 pm EST SW 4.6 3.00 Light Snow -- 33.0 32.0 96% 29 NA 29.69 M
3:55 pm EST SW 4.6 10.00 Light Snow -- 35.0 31.1 87% 31 NA 29.68 M
2:55 pm EST SW 6.9 4.00 Light Snow -- 34.0 31.3 89% 28 NA 29.67 M
1:55 pm EST SW 10.4 G 16.1 10.00 Overcast -- 35.0 29.7 81% 27 NA 29.68 M
12:55 pm EST SW 10.4 G 16.1 10.00 Overcast -- 35.0 30.0 82% 27 NA 29.69 M
11:55 am EST SW 6.9 10.00 Overcast -- 35.0 30.6 84% 29 NA 29.71 M
10:55 am EST SW 9.2 G 17.3 10.00 Overcast -- 35.0 31.1 87% 28 NA 29.73 M
9:55 am EST W 8.1 10.00 Light Snow -- 33.0 31.1 91% 26 NA 29.72 M
8:55 am EST W 8.1 10.00 Light Snow -- 33.0 31.1 93% 26 NA 29.71 M
7:55 am EST W 9.2 5.00 Light Snow -- 32.0 31.1 96% 24 NA 29.69 M
6:55 am EST W 10.4 7.00 Overcast -- 32.0 30.7 95% 24 NA 29.67 M
5:55 am EST W 9.2 10.00 Overcast -- 32.0 30.2 93% 24 NA 29.64 M

Regional Weather Observation


Beaver County Airport, PA (KBVI)

Overcast
30.0 F

Unknown Station (KPJC)

Overcast
32.0 F

Youngstown, Youngstown-Warren Regional Airport, OH (KYNG)

Light Snow Fog/Mist
30.0 F

Pittsburgh, Pittsburgh International Airport, PA (KPIT)

Light Snow
30.0 F

Port Meadville Airport, PA (KGKJ)

Light Snow Fog/Mist
29.0 F

Wheeling, Wheeling Ohio County Airport, WV (KHLG)

Overcast
30.0 F